www.pogodaiklimat.ru

Погода и климат >> Архив погоды >> Антарктида >> San Martin Base


ПОГОДА в San Martin Base

  • Прогноз погоды в San Martin Base
  • Монитор погоды в San Martin Base
  • Климат города

АРХИВ ПОГОДЫ в San Martin Base

Время (UTC), дата Ветер
(напр.,м/с)
 
Видим.   Явления Облачность Т
(С)
Тd
(С)
f
(%)
Тe
(С)
Тes
(С)
Комфортность P
(гПа)
Po
(гПа)
Тmin
(С)
Tmax
(С)
R
(мм)
R24
(мм)
S
(см)
03 11.10 С 1 10 км 6/3 900 м
[Sc Ac As]
-8.4 -11.1 81 -11 -11 1000.4 999.4
06 11.10 ЮВ 1 10 км 10/10 300 м
[St]
-8.0 -10.2 84 -10 -10 1000.0 999.0
09 11.10 С 2 200 м переохл. туман ?/? -8.4 -9.7 90 -12 -12 999.8 998.9
12 11.10 С 4 900 м переохл. туман 10/10 180 м
[St]
-9.0 -10.8 87 -16 -16 999.5 998.6 -11.0 -6.0 0.0
15 11.10 ЮВ 1 4000 м в посл. час туман 4/4 240 м
[St]
-4.0 -7.7 75 -6 -2 998.4 997.4
18 11.10 С 1 4000 м дымка {туман} ясно -1.8 -4.2 84 -4 +2 997.7 996.8
21 11.10 С 2 500 м туман местами ясно -8.2 -10.9 81 -13 -11 996.8 995.8
00 12.10 С 2 600 м туман местами ясно -10.0 -13.0 79 -14 -14 995.6 994.6 -10.0 -1.8
03 12.10 Ю 2 12 км в посл. час туман ясно -10.8 -15.1 71 -14 -14 994.7 993.8
06 12.10 В 5 12 км ясно -8.0 -15.1 57 -15 -15 993.4 992.5
09 12.10 Ю 5 20 км 1/0
[Ac As]
-8.0 -15.1 57 -15 -15 991.8 990.9
12 12.10 В 9 20 км 4/0
[Ac trans]
-6.3 -8.3 86 -16 -16 990.3 989.4 -12.2 -5.8 32
15 12.10 В 10 20 км 5/0
[Ac trans Ci fib]
-3.5 -5.9 83 -13 -13 988.9 988.0
18 12.10 В 19 3000 м позёмок {метель} 4/0
[Ci fib]
-7.2 -8.4 91 -20 -20 987.0 986.1
21 12.10 СВ 18 1500 м позёмок {метель} 1/0
[Ac trans]
-8.2 -9.9 88 -21 -21 986.3 985.4
00 13.10 В 23 1500 м позёмок {метель} 3/0
[Ac As]
-9.4 -11.7 83 -24 -24 986.4 985.4 -10.3 -3.5
03 13.10 В 26 1000 м позёмок {метель} 3/0
[Ac As]
-9.6 -12.5 79 -25 -25 987.4 986.5
06 13.10 В 26 1000 м позёмок {метель} 5/0
[Ac As]
-9.6 -12.5 79 -25 -25 987.7 986.8
09 13.10 В 15 12 км {метель} 3/0
[Ac As]
-9.0 -11.8 80 -21 -21 988.7 987.8
12 13.10 В 15 10 км позёмок {метель} 3/3 1050 м
[Sc Ci fib]
-7.2 -10.7 76 -19 -19 989.7 988.8 -10.5 -6.0 30
15 13.10 В 16 10 км позёмок {метель} 3/0
[Ci fib]
-6.5 -10.3 74 -18 -18 990.4 989.4
18 13.10 В 10 20 км {метель} 3/0
[Ci fib]
-3.8 -6.7 80 -13 -13 991.1 990.2
21 13.10 В 10 20 км 3/0
[Ci fib]
-4.7 -7.7 79 -14 -14 991.1 990.2
00 14.10 В 10 20 км 3/0
[Ci fib]
-5.8 -13.6 54 -15 -15 991.8 990.9 -7.6 -3.5
03 14.10 В 6 15 км ясно -7.8 -11.4 75 -16 -16 992.4 991.4
06 14.10 В 3 15 км ясно -9.7 -14.3 69 -15 -15 993.0 992.1
09 14.10 Ю 2 20 км 1/0
[Ci fib]
-10.2 -13.8 75 -14 -14 993.7 992.8
12 14.10 С 2 20 км 4/0
[Ac As]
-8.4 -13.2 68 -13 -11 994.6 993.7 -11.2 -6.2 30
15 14.10 С 2 20 км ясно -4.6 -10.3 64 -8 -2 995.4 994.5
18 14.10 С 1 20 км ясно -3.4 -7.8 72 -5 +1 996.6 995.7
21 14.10 С 1 20 км ясно -3.4 -7.8 72 -5 -3 996.6 995.7
00 15.10 С 3 20 км ясно -7.8 -9.5 88 -13 -13 998.7 997.8 -8.4 -3.2
03 15.10 штиль 0 15 км ясно -10.7 -15.0 71 -11 -11 999.0 998.1
06 15.10 ЮВ 1 15 км ясно -11.8 -16.5 68 -14 -14 999.8 998.9
09 15.10 ЮВ 4 20 км 5/0
[Ac As Ci sp]
-12.0 -16.0 72 -19 -19 1000.4 999.4
12 15.10 Ю 1 15 км 8/0
[Ac As]
-9.4 -12.8 76 -12 -11 1000.9 1000.0 -13.5 -7.8 30
15 15.10 Ю 1 20 км 6/0
[Ac As]
-5.6 -8.8 78 -8 -4 1001.1 1000.2
18 15.10 ЮВ 2 20 км 5/0
[Ci fib]
-3.6 -8.1 71 -7 -1 1001.7 1000.8
09 16.10 штиль 0 20 км 4/0
[Ci fib]
-15.4 -22.5 54 -15 -15 1008.5 1007.6
12 16.10 ЮВ 1 20 км 3/0
[Ci fib]
-11.6 -17.6 61 -14 -11 1010.0 1009.0 -16.5 -8.7 30
15 16.10 СВ 2 20 км 4/0
[Ac As]
-5.8 -9.0 78 -10 -6 1011.5 1010.6
18 16.10 СЗ 4 15 км 6/0
[As trans Cs]
-3.6 -7.2 76 -10 -7 1013.0 1012.1
21 16.10 СЗ 7 15 км 10/0
[As trans]
-4.4 -6.6 85 -13 -12 1014.6 1013.7
00 17.10 С 6 10 км 10/6 240 м
[Sc Ac As]
-3.8 -6.3 83 -11 -11 1015.5 1014.6 -12.5 -3.0
03 17.10 С 6 3500 м дымка 10/6 240 м
[Sc Ac As]
-4.2 -7.1 80 -12 -12 1015.9 1015.0
06 17.10 СЗ 4 2000 м слабый снег 10/5 240 м
[Sc As op]
-4.8 -6.6 87 -11 -11 1015.3 1014.4 1
09 17.10 СЗ 2 2000 м слабый снег 10/5 240 м
[Sc As op]
-4.2 -5.6 90 -9 -9 1014.4 1013.6
12 17.10 ЮВ 3 2000 м слабый снег 10/5 240 м
[St Ac As]
-3.2 -4.5 91 -9 -8 1012.7 1011.8 -5.2 -3.2 2 34
15 17.10 ЮВ 2 2000 м слабый снег 10/5 240 м
[St Ac As]
-1.0 -2.3 91 -4 -3 1012.0 1011.0
18 17.10 Ю 2 2000 м слабый снег 10/5 240 м
[St Ac As]
-1.6 -3.0 90 -6 -5 1011.2 1010.2 0.0
21 17.10 С 1 3000 м слабый снег 10/5 300 м
[St Ac As]
+0.2 -5.3 66 -1 -1 1010.5 1009.6

 

Местоположение метеостанции San Martin Base (Антарктида): широта -68.11 долгота -67.13 высота над уровнем моря 4 м.

В архиве по умолчанию представлена погода в San Martin Base за последнюю неделю. Архивные данные за месяц целиком и за предыдущие месяцы, начиная с января 2011 года, Вы можете получить, выбрав интересующий диапазон дат из раскрывающегося списка и нажав кнопку "Ввод!".


*Определитесь, кто Вы:
робот инопланетянин человек

Внимание! Время в таблицах - всемирное. Для получения местного времени необходимо прибавить поправку, которая в San Martin Base равна 0 ч.

Смотрите также архив погоды в соседних городах и на ближайших метеорологических станциях:

Погода в Rothera (Антарктида) (74 км)
Погода в Larsen Ice Shelf (Антарктида) (267 км)
Погода в Vernadsky (Антарктида) (342 км)
Погода в Fossil Bluff (Антарктида) (361 км)
Погода в Palmer Station (Антарктида) (396 км)
Погода в Butler Island (Антарктида) (525 км)
Погода в Marambio Base (Антарктида) (635 км)
Погода в Bernardo o`Higgins (Антарктида) (679 км)
Погода в Juan Carlos Island (Антарктида) (681 км)
Погода в Esperanza Base (Антарктида) (698 км)

Пояснения к столбцам:

Ветер - указаны скорость ветра в м/с - средняя за 10 мин, порывы в срок и между сроками (в фигурных скобках) и направление, откуда дует ветер: С - северный, СВ - северо-восточный, В - восточный, ЮВ - юго-восточный, Ю - южный, ЮЗ - юго-западный, З - западный, СЗ - северо-западный.
Видимость - горизонтальная дальность видимости в метрах или километрах. При видимости от 1 до 10 км при отсутствии осадков обычно наблюдается дымка, при ухудшении видимости до 1 км и менее - туман. В сухую погоду видимость может ухудшаться дымом, пылью или мглою.
Явления - указаны атмосферные явления, наблюдавшиеся в срок или в последний час перед сроком; фигурными скобками обозначены явления, наблюдавшиеся между сроками (за 1-3 часа до срока); квадратными скобками обозначены град или гололедные отложения с указанием их диаметра в мм.
Облачность - указаны через наклонную черту общая и нижняя облачность в баллах и высота нижней границы облаков в метрах; квадратными скобками обозначены формы облаков: Ci - перистые, Cs - перисто-слоистые, Cc - перисто-кучевые, Ac - высококучевые, As - высокослоистые, Sc - слоисто-кучевые, Ns - слоисто-дождевые, Cu - кучевые, Cb - кучево-дождевые. Подробнее классификацию облаков см. в Атласе облаков (PDF).
T - Температура воздуха - температура, измеренная на высоте 2 м над землей.
Td - Температура точки росы - температура, при понижении до которой содержащийся в воздухе водяной пар достигнет насыщения.
f - Относительная влажность воздуха - влажноcть воздуха, измеренная на высоте 2 м над землей.
Te - Эффективная температура - температура, которую ощущает одетый по сезону человек в тени. Характеристика душности погоды. При расчете учитывается влияние влажности воздуха и скорости ветра на теплоощущения человека.
Tes - Эффективная температура на солнце - температура, которую ощущает человек, с поправкой на солнечный нагрев. Характеристика знойности погоды. Зависит от высоты солнца над горизонтом, облачности и скорости ветра. Ночью, в пасмурную погоду, а также при ветре 12 м/с и более поправка равна нулю.
P - Атмосферное давление - приведенное к уровню моря атмосферное давление.
Po - Атмосферное давление - измеренное на уровне метеостанции атмосферное давление.
Tmin - Минимальная температура - минимум температуры воздуха на высоте 2 м над землей.
Tmax - Максимальная температура - максимум температуры воздуха на высоте 2 м над землей.
R - Количество осадков - Количество выпавших осадков за период времени, мм. При наведении курсора мыши на число - период времени, за который выпало указанное количество осадков.
R24 - Количество осадков - Количество выпавших осадков за 24 часа, мм.
S - Снежный покров - Высота снежного покрова, см. При наведении курсора мыши на число - состояние снежного покрова и степень покрытия местности в баллах.